Location: Vista Encantada
(35.1109°N, 106.5681°W)
Time: 09:10:27
(UTC+00:00)

Abrixas rocket - Pass Details

Date: 29 October 2020
Orbit: 319 x 321 km, 48.4° (Epoch: 04 December)

Event Time Altitude Azimuth Distance (km) Brightness Sun altitude
Exits shadow 12:34:03 13° 321° (NW) 1,134 4.0 -11.0°
Maximum altitude 12:36:27 46° 34° (NE) 465 2.7 -10.6°
Drops below altitude 10° 12:39:13 10° 110° (ESE) 1,279 6.2 -10.0°
Sets 12:41:17 0° 116° (ESE) 2,119 7.5 -9.6°
